Regional Weather Roundup
Issued by NWS

Home | Current Version | Previous Version | Text Only | Print | Product List | Glossary Off
Versions: 1 2 3 4 5 6 7 8 9 10 11 12 13 14 15 16 17 18 19 20 21 22 23 24 25 26 27 28 29 30 31 32 33 34 35 36 37 38 39 40 41 42 43 44 45 46 47 48 49 50

000
ASUS43 KBIS 041302
RWRND

NORTH DAKOTA REGIONAL WEATHER ROUNDUP
NATIONAL WEATHER SERVICE BISMARCK ND
800 AM CDT TUE AUG 04 2015

NOTE: "FAIR" INDICATES FEW OR NO CLOUDS BELOW 12,000 FEET WITH NO
SIGNIFICANT WEATHER AND/OR OBSTRUCTIONS TO VISIBILITY.


NDZ001>003-009>011-017-041400-
NORTHWEST NORTH DAKOTA

CITY           SKY/WX    TMP DP  RH WIND       PRES   REMARKS
WILLISTON      SUNNY     66  51  58 NE5       29.97R
MINOT          SUNNY     57  50  77 CALM      30.01R
MINOT AFB      SUNNY     58  52  79 CALM      30.01R
$$

NDZ018>021-031>035-040>046-041400-
SOUTHWEST NORTH DAKOTA

CITY           SKY/WX    TMP DP  RH WIND       PRES   REMARKS
BISMARCK       MOSUNNY   58  52  80 E6        30.01S
DICKINSON      MOSUNNY   57  50  77 E9        29.97R
GARRISON         N/A     58  54  86 CALM      30.00S
HETTINGER ARPT SUNNY     60  51  72 CALM      29.99R
$$

NDZ004>008-012>016-024-026-027-054-041400-
NORTHEAST NORTH DAKOTA

CITY           SKY/WX    TMP DP  RH WIND       PRES   REMARKS
GRAND FORKS    MOSUNNY   57  52  83 NW3       30.01R
GRND FRKS AFB  SUNNY     56  52  86 N5        30.02R
DEVILS LAKE    SUNNY     57  46  67 E3        30.02R
$$

NDZ022-023-025-028>030-036>039-047>053-041400-
SOUTHEAST NORTH DAKOTA

CITY           SKY/WX    TMP DP  RH WIND       PRES   REMARKS
FARGO          SUNNY     58  50  75 CALM      30.02R
JAMESTOWN      SUNNY     59  55  87 CALM      30.02S
$$




USA.gov is the U.S. government's official web portal to all federal, state and local government web resources and services.